[[{"header":{"parameterUnit":"m.s-1","parameterCategory":1,"la1":30.2991,"la2":30.254,"lo1":-89.0895,"lo2":-89.0444,"dy":0.0017,"dx":0.0017,"nx":28,"ny":28,"refTime":"2024-11-23T09:00:00:Z","depth":0,"parameterNumber":2,"parameterNumberName":"U-component_of_WINDS"},"data":[0,0,0,0,0,0,0,0,0,0,0,0,0,0,0,0,0,0,0,0,0,0,0,0,0,0,0,0,0,0,0,0,0,0,0,0,0,0,0,0,0,0,0,0,0,0,0,0,0,0,0,0,0,0,0,0,0,0,-0.3924,-0.3924,0,-0.3896,-0.3896,-0.3896,-0.3855,-0.3854,-0.3854,-0.3853,-0.3826,-0.3826,-0.3826,0,0,0,0,0,0,0,0,0,0,0,0,0,-0.3943,-0.3943,-0.3924,-0.3924,-0.3924,-0.3897,-0.3896,-0.3896,-0.3855,-0.3854,-0.3854,-0.3853,-0.3826,-0.3826,-0.3826,0,0,0,0,0,0,0,0,0,0,0,0,0,-0.3927,-0.3943,-0.3924,-0.39,-0.3898,-0.3897,-0.3896,-0.3896,-0.3855,-0.3854,-0.3853,-0.3852,-0.3826,-0.3826,-0.3826,-0.3847,0,0,-0.3826,-0.3825,0,0,0,0,0,0,0,0,-0.3928,-0.3927,-0.3904,-0.3902,-0.3899,-0.3878,-0.3893,-0.3879,-0.3856,-0.3871,-0.3853,-0.3852,-0.3844,-0.3843,-0.384,-0.3845,-0.3844,-0.3826,-0.3825,-0.3825,-0.3825,0,0,0,0,0,0,0,-0.3929,-0.3928,-0.3913,-0.3904,-0.3901,-0.3891,-0.3887,-0.389,-0.3864,-0.387,-0.3867,-0.3864,-0.3843,-0.384,-0.3839,-0.3844,-0.3826,-0.3825,-0.3825,-0.3825,-0.3865,-0.3867,0,0,0,0,0,0,-0.3934,-0.3929,-0.3914,-0.3912,-0.3911,-0.3891,-0.3888,-0.3886,-0.3864,-0.386,-0.3865,-0.3862,-0.3841,-0.3839,-0.3838,-0.3861,-0.3825,-0.3825,-0.3825,-0.3864,-0.3866,-0.3867,0,0,0,0,0,0,-0.3934,-0.3933,-0.3915,-0.392,-0.3917,-0.3892,-0.3891,-0.3886,-0.3883,-0.386,-0.3856,-0.3867,-0.384,-0.3838,-0.3845,-0.386,-0.3825,-0.3825,-0.3863,-0.3865,-0.3866,-0.3908,0,0,0,0,0,0,-0.3935,-0.3933,-0.3941,-0.392,-0.3917,-0.3923,-0.3892,-0.3886,-0.3883,-0.3879,-0.3861,-0.3857,-0.3839,-0.3845,-0.3845,-0.3859,-0.3825,-0.3862,-0.3864,-0.3866,-0.3905,-0.3911,-0.3916,0,0,0,0,0,-0.3936,-0.3954,-0.3941,-0.394,-0.3925,-0.3924,-0.3922,-0.39,-0.3884,-0.3892,-0.3877,-0.3857,-0.3858,-0.3846,-0.3845,-0.386,-0.3861,-0.3863,-0.3866,-0.3903,-0.391,-0.3915,0,0,0,0,0,0,-0.3978,-0.3951,-0.3937,-0.3948,-0.3938,-0.3917,-0.3925,-0.3908,-0.3902,-0.3899,-0.3873,-0.3869,-0.3879,-0.387,-0.3857,-0.3879,-0.3856,-0.3859,-0.3885,-0.3891,-0.3896,-0.3899,-0.3825,0,0,0,0,0,-0.3988,-0.3988,-0.3965,-0.3978,-0.3973,-0.395,-0.3949,-0.3933,-0.3922,-0.3917,-0.3903,-0.3893,-0.3891,-0.3891,-0.3887,-0.3903,-0.3899,-0.3913,-0.3918,-0.3922,-0.3925,-0.3933,-0.3939,-0.3875,-0.3875,-0.3875,0,0,-0.401,-0.3995,-0.3997,-0.3986,-0.3976,-0.3977,-0.3947,-0.395,-0.3951,-0.3918,-0.3923,-0.3913,-0.39,-0.3912,-0.3916,-0.3904,-0.3942,-0.3926,-0.3929,-0.3929,-0.3936,-0.3942,-0.3948,-0.3877,-0.3877,-0.3876,0,0,-0.405,-0.4039,-0.4048,-0.4039,-0.4025,-0.4009,-0.4012,-0.3992,-0.3984,-0.3989,-0.3965,-0.3965,-0.3962,-0.3954,-0.395,-0.3987,-0.3969,-0.3987,-0.4014,-0.4022,-0.4028,-0.4032,-0.4046,-0.4051,-0.3989,-0.3989,-0.3989,0,-0.4079,-0.408,-0.4056,-0.406,-0.4056,-0.4025,-0.4035,-0.4027,-0.4013,-0.4011,-0.3998,-0.3993,-0.3982,-0.3992,-0.4001,-0.3998,-0.4,-0.3989,-0.4029,-0.4033,-0.4036,-0.4049,-0.4054,-0.3992,-0.3991,-0.3991,-0.3991,0,-0.4117,-0.4117,-0.4127,-0.4113,-0.411,-0.4117,-0.4094,-0.4094,-0.4078,-0.4064,-0.407,-0.4056,-0.4049,-0.405,-0.4035,-0.4057,-0.4051,-0.4033,-0.401,-0.4045,-0.4057,-0.4062,-0.3995,-0.3994,-0.3993,-0.3993,0,0,-0.4183,-0.4156,-0.416,-0.4153,-0.4135,-0.4135,-0.4141,-0.4134,-0.4134,-0.4125,-0.413,-0.4128,-0.4111,-0.4106,-0.409,-0.4097,-0.4128,-0.4079,-0.4078,-0.4089,-0.4152,-0.4166,-0.4172,-0.4115,-0.4116,-0.4117,-0.4154,0,-0.4221,-0.4228,-0.4206,-0.422,-0.422,-0.4191,-0.4196,-0.4186,-0.4173,-0.4172,-0.4157,-0.4157,-0.4135,-0.4132,-0.4138,-0.4123,-0.414,-0.412,-0.412,-0.412,-0.4125,-0.4178,-0.4192,-0.4228,-0.4158,-0.4159,-0.4159,0,-0.4265,-0.4258,-0.4272,-0.4253,-0.4252,-0.4257,-0.4249,-0.4248,-0.4236,-0.4226,-0.422,-0.4201,-0.4205,-0.4182,-0.4188,-0.4175,-0.4173,-0.4166,-0.4167,-0.4167,-0.4142,-0.418,-0.4238,-0.4244,-0.4166,-0.4165,-0.4165,0,-0.4313,-0.4307,-0.4314,-0.431,-0.4287,-0.4291,-0.4283,-0.4269,-0.4266,-0.4259,-0.4257,-0.4251,-0.4248,-0.4244,-0.4224,-0.4209,-0.4232,-0.4208,-0.4224,-0.4225,-0.4231,-0.4231,-0.4291,-0.4229,-0.4229,-0.4229,-0.4229,0,-0.4358,-0.4367,-0.4336,-0.434,-0.435,-0.4325,-0.4335,-0.4323,-0.4311,-0.4313,-0.4288,-0.429,-0.4263,-0.4263,-0.4247,-0.4254,-0.4253,-0.4245,-0.4241,-0.4248,-0.4249,-0.4247,-0.4245,-0.4231,-0.423,-0.423,-0.423,0,-0.4414,-0.4393,-0.4399,-0.4377,-0.4372,-0.438,-0.4361,-0.4365,-0.435,-0.4353,-0.4352,-0.4329,-0.4327,-0.4306,-0.43,-0.4289,-0.4303,-0.4294,-0.4307,-0.4305,-0.4323,-0.4322,-0.4384,-0.4391,-0.4325,-0.4325,-0.4326,0,-0.4444,-0.445,-0.4429,-0.4428,-0.442,-0.442,-0.4417,-0.4392,-0.439,-0.4376,-0.4381,-0.4377,-0.4373,-0.4371,-0.4354,-0.4349,-0.434,-0.4362,-0.4339,-0.4346,-0.4341,-0.4341,-0.4342,-0.4367,-0.4368,-0.4369,-0.4369,0,-0.45,-0.4489,-0.4485,-0.4478,-0.4475,-0.4468,-0.446,-0.4461,-0.4433,-0.4433,-0.443,-0.4427,-0.442,-0.4416,-0.4408,-0.4399,-0.438,-0.4377,-0.438,-0.4388,-0.4396,-0.4392,-0.4321,-0.4376,-0.4375,-0.4375,-0.4374,-0.4374,-0.4544,-0.4548,-0.4534,-0.4531,-0.4522,-0.4515,-0.4517,-0.4502,-0.4499,-0.4492,-0.4477,-0.4477,-0.4464,-0.4451,-0.4444,-0.4444,-0.4432,-0.4438,-0.4439,-0.4441,-0.4445,-0.4395,-0.4442,-0.4442,-0.4442,-0.4442,-0.4441,0,-0.4599,-0.4588,-0.4585,-0.4574,-0.4572,-0.4553,-0.4543,-0.4542,-0.4542,-0.4532,-0.4528,-0.4525,-0.4521,-0.4504,-0.4498,-0.4502,-0.4493,-0.4501,-0.4501,-0.4499,-0.4455,-0.4453,-0.4508,-0.4508,-0.4508,-0.4508,-0.4508,-0.4508,-0.4628,-0.4634,-0.4622,-0.4624,-0.4613,-0.4612,-0.4608,-0.4601,-0.4593,-0.4591,-0.4587,-0.4575,-0.4562,-0.4555,-0.4551,-0.4546,-0.4546,-0.4557,-0.4549,-0.4509,-0.4502,-0.4496,-0.4494,-0.4557,-0.4557,-0.4593,-0.4594,-0.4594]},{"header":{"parameterUnit":"m.s-1","parameterCategory":1,"la1":30.2991,"la2":30.254,"lo1":-89.0895,"lo2":-89.0444,"dy":0.0017,"dx":0.0017,"nx":28,"ny":28,"refTime":"2024-11-23T09:00:00:Z","depth":0,"parameterNumber":3,"parameterNumberName":"V-component_of_WINDS"},"data":[0,0,0,0,0,0,0,0,0,0,0,0,0,0,0,0,0,0,0,0,0,0,0,0,0,0,0,0,0,0,0,0,0,0,0,0,0,0,0,0,0,0,0,0,0,0,0,0,0,0,0,0,0,0,0,0,0,0,2.2706,2.2706,0,2.2695,2.2695,2.2694,2.2658,2.2657,2.2656,2.2655,2.2643,2.2643,2.2644,0,0,0,0,0,0,0,0,0,0,0,0,0,2.2696,2.2696,2.2706,2.2706,2.2706,2.2695,2.2695,2.2694,2.2658,2.2657,2.2656,2.2655,2.2643,2.2643,2.2644,0,0,0,0,0,0,0,0,0,0,0,0,0,2.2694,2.2697,2.2707,2.2687,2.2685,2.2695,2.2695,2.2694,2.2658,2.2657,2.2656,2.2655,2.2643,2.2643,2.2644,2.2672,0,0,2.2646,2.2646,0,0,0,0,0,0,0,0,2.2694,2.2695,2.269,2.2688,2.2686,2.2676,2.2686,2.2687,2.2658,2.2668,2.2655,2.2654,2.2655,2.2655,2.2655,2.2671,2.2671,2.2646,2.2646,2.2646,2.2647,0,0,0,0,0,0,0,2.2694,2.2695,2.2702,2.269,2.2687,2.2678,2.2676,2.2686,2.2669,2.2667,2.2665,2.2664,2.2654,2.2654,2.2654,2.2671,2.2646,2.2646,2.2647,2.2647,2.2708,2.2709,0,0,0,0,0,0,2.2698,2.2695,2.2702,2.2701,2.2687,2.2679,2.2677,2.2681,2.2668,2.2665,2.2665,2.2662,2.2654,2.2654,2.2654,2.2685,2.2646,2.2647,2.2647,2.2707,2.2708,2.271,0,0,0,0,0,0,2.2697,2.2699,2.2703,2.2698,2.2697,2.268,2.2685,2.2681,2.2682,2.2666,2.2663,2.2669,2.2653,2.2653,2.2667,2.2684,2.2647,2.2648,2.2705,2.2707,2.2709,2.2747,0,0,0,0,0,0,2.2697,2.2699,2.271,2.2698,2.2698,2.2717,2.2686,2.2682,2.2683,2.2679,2.2669,2.2666,2.2652,2.2667,2.2668,2.2684,2.2648,2.2704,2.2706,2.2708,2.2745,2.275,2.2755,0,0,0,0,0,2.2697,2.2721,2.271,2.2711,2.2711,2.2718,2.2718,2.2701,2.2685,2.2695,2.2685,2.2667,2.2682,2.2668,2.267,2.2686,2.2703,2.2705,2.2708,2.2742,2.2749,2.2755,0,0,0,0,0,0,2.2735,2.2719,2.2707,2.2728,2.2725,2.2712,2.2724,2.2709,2.271,2.2706,2.2685,2.2683,2.27,2.2695,2.268,2.2712,2.2689,2.2692,2.2715,2.2721,2.2726,2.2727,2.2649,0,0,0,0,0,2.2746,2.2753,2.2739,2.2759,2.2758,2.2742,2.2744,2.2731,2.2726,2.2725,2.2716,2.2712,2.2715,2.2718,2.2721,2.2744,2.274,2.2756,2.2761,2.2766,2.2768,2.2778,2.2784,2.2719,2.2719,2.2719,0,0,2.2769,2.2761,2.2767,2.2767,2.2762,2.2769,2.2741,2.275,2.2755,2.2726,2.2739,2.2732,2.2726,2.2745,2.2752,2.274,2.2786,2.2769,2.2773,2.2773,2.2782,2.2788,2.2793,2.2721,2.272,2.272,0,0,2.2813,2.2809,2.2824,2.282,2.2814,2.2803,2.2807,2.2796,2.279,2.2803,2.2781,2.2786,2.2793,2.2789,2.2788,2.283,2.2813,2.2832,2.2859,2.287,2.2875,2.2879,2.2893,2.2898,2.2835,2.2835,2.2835,0,2.2842,2.2852,2.2834,2.2844,2.2844,2.2819,2.2833,2.2831,2.2826,2.2826,2.2813,2.282,2.2815,2.2831,2.2841,2.2842,2.2844,2.2832,2.2876,2.288,2.2884,2.2896,2.2901,2.2837,2.2837,2.2837,2.2836,0,2.2887,2.2894,2.2908,2.2903,2.2904,2.2917,2.29,2.2904,2.2891,2.2881,2.2893,2.2885,2.2885,2.2888,2.2876,2.2903,2.2895,2.2879,2.2856,2.2892,2.2904,2.2909,2.284,2.2839,2.2839,2.2838,0,0,2.2955,2.294,2.2945,2.2941,2.2932,2.2937,2.2948,2.2948,2.2951,2.2948,2.2956,2.2962,2.2947,2.2946,2.2933,2.2942,2.2974,2.2925,2.2924,2.2933,2.3001,2.3012,2.3018,2.2963,2.2964,2.2964,2.3001,0,2.2996,2.3014,2.2997,2.3018,2.3024,2.2999,2.3009,2.3004,2.2995,2.2998,2.2988,2.2992,2.2972,2.2971,2.2979,2.2968,2.2987,2.2966,2.2969,2.2969,2.297,2.3024,2.3036,2.3071,2.3005,2.3006,2.3006,0,2.3046,2.3045,2.3066,2.3054,2.3056,2.3065,2.3062,2.3066,2.306,2.3052,2.3051,2.3035,2.3044,2.3022,2.3033,2.3019,2.3019,2.3014,2.3015,2.3013,2.2989,2.3022,2.3081,2.3086,2.3014,2.3013,2.3013,0,2.3091,2.3096,2.3108,2.3107,2.3094,2.31,2.3095,2.3087,2.3088,2.3086,2.3085,2.3085,2.3084,2.3084,2.3067,2.3053,2.308,2.3057,2.3073,2.3073,2.3079,2.3079,2.3137,2.3082,2.3082,2.3082,2.3082,0,2.3138,2.3152,2.3128,2.3136,2.315,2.3131,2.3145,2.3138,2.3131,2.3136,2.3115,2.312,2.3099,2.3102,2.309,2.31,2.31,2.3094,2.309,2.3095,2.3095,2.3094,2.309,2.3083,2.3083,2.3082,2.3082,0,2.3191,2.3176,2.3188,2.3174,2.3171,2.3182,2.317,2.3176,2.3166,2.3173,2.3173,2.3156,2.3158,2.3142,2.3142,2.3133,2.3149,2.3142,2.3151,2.3148,2.3164,2.3162,2.3223,2.3229,2.3171,2.3172,2.3172,0,2.3221,2.323,2.3218,2.322,2.3215,2.3219,2.3219,2.3201,2.3201,2.3194,2.3201,2.3201,2.32,2.3205,2.3192,2.3191,2.3183,2.3204,2.3182,2.3186,2.3181,2.318,2.318,2.3208,2.3209,2.3209,2.321,0,2.3275,2.3267,2.3268,2.3266,2.3267,2.3265,2.3261,2.3264,2.3243,2.3245,2.3247,2.3246,2.3245,2.3245,2.3242,2.3235,2.3219,2.3217,2.322,2.3224,2.3229,2.3225,2.3161,2.3215,2.3215,2.3214,2.3214,2.3214,2.3316,2.3323,2.3315,2.3316,2.3312,2.3308,2.3313,2.3303,2.3304,2.3301,2.329,2.3294,2.3286,2.3279,2.3274,2.3276,2.3266,2.3271,2.3272,2.3273,2.3275,2.323,2.3275,2.3275,2.3275,2.3275,2.3275,0,2.3368,2.3362,2.3363,2.3358,2.3359,2.3344,2.3339,2.334,2.3344,2.3338,2.3337,2.3338,2.3338,2.3325,2.3323,2.3327,2.3319,2.3327,2.3326,2.3324,2.3286,2.3282,2.3333,2.3333,2.3333,2.3333,2.3333,2.3333,2.3395,2.3406,2.3396,2.3404,2.3397,2.34,2.3398,2.3394,2.3389,2.3392,2.3391,2.3383,2.3374,2.3371,2.3369,2.3365,2.3365,2.3375,2.3369,2.3333,2.3327,2.3322,2.3318,2.3376,2.3376,2.3406,2.3407,2.3407]}]]